Volver al catálogo

STARLINK-31646

ActivoComunicacionesVLEO
NORAD 59265·PAYLOAD·🇺🇸 United States

Lanzado Mar 19, 2024 desde Vandenberg Space Force Base

Loading…

Próximos Pases (próximas 24 horas)

TLE

ActualizadoSource: CelesTrak SupGP

Época: Sep 15, 2026, 03:15 UTC

1 59265C 24050M   26258.13590278  .00046967  00000+0  13876-2 0  2582
2 59265  53.1593  18.5633 0001120  93.4506  80.2198 15.34367361    10

Sigue STARLINK-31646 en tiempo real con AllMySat

Download on the App Store